Weather reports worldwide

Advertisment
Lanzarote Airport (AWS), Spain (60040): temperature & dewpoint: 14.07.2018 23:00:00 - 20.07.2018 23:00:00 (WEST)Lanzarote Airport (AWS), Spain (60040): wind speed: 14.07.2018 23:00:00 - 20.07.2018 23:00:00 (WEST)Lanzarote Airport (AWS), Spain (60040): wind direction: 14.07.2018 23:00:00 - 20.07.2018 23:00:00 (WEST)Lanzarote Airport (AWS), Spain (60040): reduced air pressure: 14.07.2018 23:00:00 - 20.07.2018 23:00:00 (WEST)Lanzarote Airport (AWS), Spain (60040): visibility: 14.07.2018 23:00:00 - 20.07.2018 23:00:00 (WEST)
Date & Time tt [°C] td [°C] ff [km/h] ff [kn] dd ppp [hPa] vv [km]
20.07.2018 23:00:00 21,1 18,1 48 26 NNW 1016,1 -
20.07.2018 22:00:00 21,2 18,0 48 26 NNW 1015,9 15
20.07.2018 21:00:00 21,7 17,9 48 26 N 1015,5 -
20.07.2018 20:00:00 22,9 18,1 46 25 N 1015,6 -
20.07.2018 19:00:00 24,0 18,0 46 25 N 1015,1 18
20.07.2018 18:00:00 24,8 17,9 48 26 N 1015,6 -
20.07.2018 17:00:00 26,5 18,0 39 21 N 1015,9 -
20.07.2018 16:00:00 26,8 18,0 41 22 N 1016,3 15
20.07.2018 15:00:00 27,3 17,8 42 23 N 1016,6 -
20.07.2018 14:00:00 27,2 17,9 44 24 N 1016,7 -
20.07.2018 13:00:00 26,9 17,7 42 23 N 1017,1 20
20.07.2018 12:00:00 26,6 17,4 39 21 N 1017,1 -
20.07.2018 11:00:00 25,1 17,6 37 20 N 1017,2 -
20.07.2018 10:00:00 23,7 17,2 39 21 N 1017,1 20
20.07.2018 09:00:00 22,0 17,6 35 19 N 1017,1 -
20.07.2018 08:00:00 20,6 17,4 34 18 N 1016,1 -
20.07.2018 07:00:00 20,2 17,2 34 18 N 1016,0 20
20.07.2018 06:00:00 20,0 17,2 29 16 N 1015,4 -
20.07.2018 05:00:00 20,2 17,2 41 22 N 1014,9 -
20.07.2018 04:00:00 20,1 17,3 28 15 N 1015,8 -
20.07.2018 03:00:00 20,2 17,2 34 18 N 1015,9 -
20.07.2018 02:00:00 20,4 17,2 39 21 N 1016,7 -
20.07.2018 01:00:00 20,7 17,3 26 14 N 1017,5 20
20.07.2018 00:00:00 20,8 17,4 28 15 N 1017,8 -
19.07.2018 23:00:00 21,0 17,6 34 18 N 1018,1 -
19.07.2018 22:00:00 21,2 17,4 34 18 NNW 1017,5 25
19.07.2018 21:00:00 21,6 17,4 22 12 N 1017,2 -
19.07.2018 20:00:00 22,6 17,3 18 10 NNE 1016,9 -
19.07.2018 19:00:00 24,3 17,5 34 18 NNW 1015,5 20
19.07.2018 18:00:00 25,6 17,5 29 16 N 1016,4 -
19.07.2018 17:00:00 25,9 17,3 37 20 N 1016,6 -
19.07.2018 16:00:00 26,5 17,2 37 20 N 1017,1 25
19.07.2018 15:00:00 26,8 17,5 35 19 N 1017,4 -
19.07.2018 14:00:00 27,2 17,6 35 19 N 1017,6 -
19.07.2018 13:00:00 26,7 17,5 35 19 N 1018,0 25
19.07.2018 12:00:00 25,9 17,4 35 19 N 1017,8 -
19.07.2018 11:00:00 24,3 17,3 35 19 N 1017,4 -
19.07.2018 10:00:00 22,9 17,4 35 19 N 1017,2 25
19.07.2018 09:00:00 21,6 17,4 37 20 N 1016,7 -
19.07.2018 08:00:00 20,5 17,5 31 17 N 1015,5 -
19.07.2018 07:00:00 20,2 17,4 29 16 N 1015,2 25
19.07.2018 06:00:00 20,1 17,7 29 16 N 1015,5 -
19.07.2018 05:00:00 20,3 17,7 41 22 NNW 1014,8 -
19.07.2018 04:00:00 20,3 17,7 26 14 N 1016,1 -
19.07.2018 03:00:00 20,3 17,8 26 14 N 1016,1 -
19.07.2018 02:00:00 20,5 17,8 28 15 N 1016,3 -
19.07.2018 01:00:00 20,8 17,8 29 16 N 1017,0 25
19.07.2018 00:00:00 20,9 17,9 28 15 N 1017,2 -
18.07.2018 23:00:00 21,1 17,9 29 16 N 1017,2 -
18.07.2018 22:00:00 21,3 17,9 29 16 N 1016,8 25
18.07.2018 21:00:00 21,8 17,7 37 20 N 1016,1 -
18.07.2018 20:00:00 22,9 17,4 42 23 N 1015,8 -
18.07.2018 19:00:00 24,2 17,2 46 25 N 1015,8 25
18.07.2018 18:00:00 25,6 17,2 42 23 N 1015,8 -
18.07.2018 17:00:00 26,3 17,4 41 22 N 1015,6 -
18.07.2018 16:00:00 27,0 17,5 42 23 N 1015,7 25
18.07.2018 15:00:00 27,3 17,3 42 23 N 1015,5 -
18.07.2018 14:00:00 27,7 17,0 39 21 N 1015,8 -
18.07.2018 13:00:00 26,8 17,1 44 24 N 1016,1 25
18.07.2018 12:00:00 25,5 17,2 44 24 N 1016,5 -
18.07.2018 11:00:00 24,5 17,2 37 20 N 1016,5 -
18.07.2018 10:00:00 23,3 17,3 37 20 N 1016,4 25
18.07.2018 09:00:00 22,2 17,1 37 20 N 1016,0 -
18.07.2018 08:00:00 20,8 16,8 22 12 NNE 1015,9 -
18.07.2018 07:00:00 20,7 16,9 24 13 N 1015,8 25
18.07.2018 06:00:00 20,7 16,9 26 14 N 1015,4 -
18.07.2018 05:00:00 20,5 16,7 24 13 NNE 1014,9 -
18.07.2018 04:00:00 20,6 17,2 26 14 NNE 1015,0 -
18.07.2018 03:00:00 20,5 17,1 22 12 N 1015,8 -
18.07.2018 02:00:00 20,4 16,8 29 16 N 1015,4 -
18.07.2018 01:00:00 20,8 17,0 26 14 N 1015,8 25
18.07.2018 00:00:00 21,1 16,8 34 18 N 1016,1 -
17.07.2018 23:00:00 21,3 16,5 31 17 NNE 1016,0 -
17.07.2018 22:00:00 21,5 16,5 29 16 N 1015,3 25
17.07.2018 21:00:00 21,8 16,5 39 21 N 1014,8 -
17.07.2018 20:00:00 23,0 16,7 41 22 N 1014,6 -
17.07.2018 19:00:00 24,6 16,8 42 23 N 1014,7 25
17.07.2018 18:00:00 25,4 16,8 41 22 N 1014,9 -
17.07.2018 17:00:00 26,0 16,3 39 21 N 1015,3 -
17.07.2018 16:00:00 27,0 16,2 37 20 N 1015,8 25
17.07.2018 15:00:00 27,1 15,6 42 23 N 1016,1 -
17.07.2018 14:00:00 26,7 15,9 42 23 N 1016,4 -
17.07.2018 13:00:00 26,4 15,2 46 25 N 1016,8 25
17.07.2018 12:00:00 25,4 15,4 39 21 N 1017,0 -
17.07.2018 11:00:00 24,3 16,3 35 19 N 1017,3 -
17.07.2018 10:00:00 22,9 16,0 35 19 N 1017,2 25
17.07.2018 09:00:00 22,1 15,9 34 18 N 1016,9 -
17.07.2018 08:00:00 21,3 15,6 35 19 N 1016,6 -
17.07.2018 07:00:00 21,1 16,2 31 17 N 1016,4 20
17.07.2018 06:00:00 20,7 15,1 31 17 NNE 1016,2 -
17.07.2018 05:00:00 20,5 15,7 24 13 NNE 1016,0 -
17.07.2018 04:00:00 20,7 16,3 24 13 N 1016,5 -
17.07.2018 03:00:00 20,7 15,9 24 13 NNE 1017,0 -
17.07.2018 02:00:00 20,7 15,9 29 16 N 1017,5 -
17.07.2018 01:00:00 20,7 16,3 26 14 NNE 1017,8 30
17.07.2018 00:00:00 20,9 15,5 28 15 NNE 1018,1 -
16.07.2018 23:00:00 21,1 16,5 35 19 N 1018,2 -
16.07.2018 22:00:00 21,5 16,5 34 18 N 1018,1 25
16.07.2018 21:00:00 21,8 17,0 37 20 N 1017,9 -
16.07.2018 20:00:00 23,3 16,8 39 21 N 1017,6 -
16.07.2018 19:00:00 23,9 16,4 42 23 N 1017,5 30
16.07.2018 18:00:00 25,4 16,3 44 24 N 1017,7 -
16.07.2018 17:00:00 26,1 16,3 44 24 N 1017,9 -
16.07.2018 16:00:00 26,6 15,9 52 28 N 1018,0 30
16.07.2018 15:00:00 26,9 16,4 44 24 N 1018,7 -
16.07.2018 14:00:00 26,7 16,3 44 24 N 1019,3 -
16.07.2018 13:00:00 26,8 15,3 50 27 N 1019,7 25
16.07.2018 12:00:00 26,2 16,2 48 26 N 1020,0 -
16.07.2018 11:00:00 24,9 15,2 50 27 N 1020,0 -
16.07.2018 10:00:00 23,5 15,7 48 26 N 1020,0 25
16.07.2018 09:00:00 21,5 15,6 29 16 N 1020,0 -
16.07.2018 08:00:00 20,8 15,1 28 15 NNE 1020,0 -
16.07.2018 07:00:00 20,0 16,0 28 15 NNE 1019,4 25
16.07.2018 06:00:00 20,0 16,2 28 15 NNE 1019,5 -
16.07.2018 05:00:00 20,1 16,3 28 15 NNE 1019,4 -
16.07.2018 04:00:00 20,1 16,3 37 20 N 1019,5 -
16.07.2018 03:00:00 20,2 16,4 41 22 N 1019,7 -
16.07.2018 02:00:00 20,2 16,8 42 23 N 1020,0 -
16.07.2018 01:00:00 20,5 16,7 42 23 N 1020,8 25
16.07.2018 00:00:00 20,6 16,8 39 21 N 1021,0 -
15.07.2018 23:00:00 20,7 16,5 42 23 N 1021,0 -
15.07.2018 22:00:00 20,8 16,6 41 22 N 1020,0 30
15.07.2018 21:00:00 21,5 15,8 46 25 N 1019,9 -
15.07.2018 20:00:00 23,2 16,3 35 19 N 1020,3 -
15.07.2018 19:00:00 24,7 16,2 35 19 N 1020,4 30
15.07.2018 18:00:00 26,0 16,0 41 22 N 1020,3 -
15.07.2018 17:00:00 27,0 14,7 39 21 N 1020,4 -
15.07.2018 16:00:00 27,4 15,3 42 23 N 1020,7 35
15.07.2018 15:00:00 27,6 15,1 34 18 N 1021,0 -
15.07.2018 14:00:00 26,9 15,1 31 17 N 1021,5 -
15.07.2018 13:00:00 26,2 15,5 34 18 N 1021,8 35
15.07.2018 12:00:00 26,8 15,7 34 18 N 1021,6 -
15.07.2018 11:00:00 25,6 15,9 34 18 N 1021,5 -
15.07.2018 10:00:00 23,5 15,9 39 21 N 1021,2 35
15.07.2018 09:00:00 21,8 16,1 44 24 N 1020,8 -
15.07.2018 08:00:00 20,1 16,1 31 17 N 1020,6 -
15.07.2018 07:00:00 19,4 16,4 24 13 NNE 1020,5 30
15.07.2018 06:00:00 19,5 16,5 26 14 NNE 1020,0 -
15.07.2018 05:00:00 19,4 16,4 24 13 NNE 1020,1 -
15.07.2018 04:00:00 19,8 16,6 34 18 N 1020,2 -
15.07.2018 03:00:00 19,7 16,8 29 16 N 1020,2 -
15.07.2018 02:00:00 20,0 16,6 29 16 N 1021,2 -
15.07.2018 01:00:00 20,1 16,7 31 17 N 1021,3 30
15.07.2018 00:00:00 20,5 16,7 34 18 N 1022,1 -
14.07.2018 23:00:00 20,7 16,5 26 14 N 1021,9 -

tt = temperature
td = dewpoint
ff = wind speed
dd = wind direction
ppp = reduced air pressure
vv = visibility

Next stations